Regional Weather Roundup
Issued by NWS

Home | Current Version | Previous Version | Text Only | Print | Product List | Glossary Off
Versions: 1 2 3 4 5 6 7 8 9 10 11 12 13 14 15 16 17 18 19 20 21 22 23 24 25 26 27 28 29 30 31 32 33 34 35 36 37 38 39 40 41 42 43 44 45 46 47 48 49 50

872
ASUS45 KBOI 091810
RWRID

IDAHO REGIONAL WEATHER ROUNDUP
NATIONAL WEATHER SERVICE BOISE ID
1100 AM MST TUE FEB 09 2016

NOTE: "FAIR" INDICATES FEW OR NO CLOUDS BELOW 12000 FEET
WITH NO SIGNIFICANT WEATHER AND/OR OBSTRUCTIONS TO VISIBILITY

IDZ012-014-091900-
SOUTHWEST IDAHO


CITY           SKY/WX    TMP DP  RH WIND       PRES   REMARKS
BOISE          CLOUDY    33  27  78 SE7       30.60S WCI  27
CALDWELL       NOT AVBL
MOUNTAIN HOME  PTSUNNY   32  27  80 SE16      30.59F FOG     WCI  21
$$

IDZ016-017-091900-
SOUTHCENTRAL IDAHO


CITY           SKY/WX    TMP DP  RH WIND       PRES   REMARKS
BURLEY         CLOUDY    27  26  96 E14       30.56S WCI  16
JEROME         MOSUNNY   25  23  92 E15       30.56S WCI  13
TWIN FALLS     FOG       29  27  92 E8        30.56S VSB 1/4 WCI  21
$$

IDZ019>023-091900-
SOUTHEAST IDAHO


CITY           SKY/WX    TMP DP  RH WIND       PRES   REMARKS
IDAHO FALLS    CLOUDY    24  21  88 N10       30.60S FOG     WCI  14
POCATELLO      FOG       25  24  96 NE5       30.61S VSB 1/2 WCI  19
REXBURG        CLOUDY    21  18  88 NE5       30.59F WCI  15
$$

IDZ006-010-011-018-031-032-091900-
CENTRAL IDAHO MOUNTAINS


CITY           SKY/WX    TMP DP  RH WIND       PRES   REMARKS
MCCALL         FOG       22  20  92 S5        30.49S VSB 1/4 WCI  16
HAILEY         SUNNY     32  21  64 NW7       30.56S WCI  26
STANLEY          N/A     24  17  74 CALM      30.59F
SALMON         CLOUDY    12  10  92 CALM      30.64F
CHALLIS        SUNNY     16  14  92 CALM      30.59F
$$

IDZ002-004-006-007-026-091900-
NORTHERN IDAHO


CITY           SKY/WX    TMP DP  RH WIND       PRES   REMARKS
LEWISTON       SUNNY     48  35  60 E9        30.41F
LOWELL           N/A     41  34  76 N5        30.52F
COEUR D`ALENE  SUNNY     36  32  87 NE15      30.41F WCI  26
MULLAN PASS    SUNNY     43  30  60 S5        30.42F
$$




USA.gov is the U.S. government's official web portal to all federal, state and local government web resources and services.